Change the Weather History Date:

Monday, November 4, 2013

  Actual Average Record
Temperature  
Mean Temperature 50 °F -  
Max Temperature 56 °F 50 °F 76 °F (1978)
Min Temperature 44 °F 34 °F 9 °F (1991)
Degree Days  
Heating Degree Days 15    
Moisture  
Dew Point 41 °F    
Average Humidity 71    
Maximum Humidity 80    
Minimum Humidity 58    
Precipitation  
Precipitation 0.00 in - - ()
Sea Level Pressure  
Sea Level Pressure 30.12 in    
Wind  
Wind Speed 10 mph (SSE)    
Max Wind Speed 21 mph    
Max Gust Speed 28 mph    
Visibility 10 miles    
Events      
Averages and records for this station are not official NWS values.
T = Trace of Precipitation, MM = Missing Value Source: NWS Daily Summary

Daily Weather History Graph

Daily Weather History Graph

Search for Another Location

Airport or City:

Trip Planner

Search our weather history database for the weather conditions in past years. The results will help you decide how hot, cold, wet, or windy it might be!

Date:

Astronomy

Nov. 04, 2013 Rise Set
Actual Time 6:36 AM CST 4:53 PM CST
Civil Twilight 6:07 AM CST 5:22 PM CST
Nautical Twilight 5:34 AM CST 5:55 PM CST
Astronomical Twilight 5:02 AM CST 6:27 PM CST
Moon 7:47 AM CST 5:58 PM CST
Length of Visible Light 11h 14m
Length of Day
10h 17m
New Moon, 2% of the Moon is Illuminated
Nov 4
New Moon
Nov 9
First Quarter
Nov 17
Full
Nov 25
Last Quarter
Dec 2
New

Hourly Weather History & Observations

Time (CST) Temp. Windchill Dew Point Humidity Pressure Visibility Wind Dir Wind Speed Gust Speed Precip Events Conditions
12:15 AM 45.5 °F 41.3 °F 36.1 °F 70% 30.15 in 10.0 mi SE 8.1 mph - N/A   Clear
12:35 AM 45.1 °F 40.8 °F 36.1 °F 71% 30.15 in 10.0 mi SE 8.1 mph 16.1 mph N/A   Clear
12:55 AM 45.5 °F 40.8 °F 36.0 °F 69% 30.15 in 10.0 mi SE 9.2 mph - N/A   Clear
1:15 AM 45.5 °F 41.3 °F 36.1 °F 70% 30.16 in 10.0 mi SE 8.1 mph 17.3 mph N/A   Clear
1:35 AM 45.3 °F 41.1 °F 36.1 °F 70% 30.16 in 10.0 mi SE 8.1 mph - N/A   Clear
1:55 AM 45.3 °F 39.7 °F 36.1 °F 70% 30.15 in 10.0 mi SE 11.5 mph 18.4 mph N/A   Clear
2:15 AM 45.1 °F 40.3 °F 36.1 °F 71% 30.14 in 10.0 mi SE 9.2 mph - N/A   Clear
2:35 AM 45.1 °F 39.9 °F 36.0 °F 70% 30.14 in 10.0 mi SE 10.4 mph - N/A   Clear
2:55 AM 44.8 °F 40.4 °F 36.1 °F 72% 30.14 in 10.0 mi SE 8.1 mph - N/A   Clear
3:15 AM 44.8 °F 40.4 °F 36.1 °F 72% 30.12 in 10.0 mi SE 8.1 mph 17.3 mph N/A   Clear
3:35 AM 44.8 °F 39.9 °F 36.3 °F 72% 30.11 in 10.0 mi SE 9.2 mph 17.3 mph N/A   Clear
3:55 AM 44.2 °F 38.8 °F 36.5 °F 74% 30.11 in 10.0 mi SE 10.4 mph - N/A   Clear
4:15 AM 44.6 °F 40.2 °F 36.5 °F 73% 30.11 in 10.0 mi SE 8.1 mph 16.1 mph N/A   Clear
4:35 AM 44.8 °F 39.9 °F 36.7 °F 73% 30.11 in 10.0 mi SE 9.2 mph - N/A   Clear
4:55 AM 45.1 °F 39.5 °F 36.7 °F 72% 30.13 in 10.0 mi SSE 11.5 mph 16.1 mph N/A   Clear
5:15 AM 45.1 °F 39.5 °F 36.9 °F 73% 30.12 in 10.0 mi SE 11.5 mph 16.1 mph N/A   Clear
5:35 AM 45.1 °F 39.9 °F 37.0 °F 73% 30.11 in 10.0 mi SE 10.4 mph 18.4 mph N/A   Clear
5:55 AM 44.8 °F 39.0 °F 37.4 °F 75% 30.11 in 10.0 mi SE 11.5 mph 17.3 mph N/A   Clear
6:15 AM 44.8 °F 39.9 °F 37.4 °F 75% 30.10 in 10.0 mi SE 9.2 mph 18.4 mph N/A   Clear
6:35 AM 44.6 °F 40.2 °F 37.6 °F 76% 30.11 in 10.0 mi SE 8.1 mph - N/A   Clear
6:55 AM 44.4 °F 39.5 °F 37.8 °F 77% 30.10 in 10.0 mi SSE 9.2 mph - N/A   Clear
7:15 AM 44.6 °F 39.2 °F 37.9 °F 77% 30.10 in 10.0 mi SE 10.4 mph 18.4 mph N/A   Clear
7:35 AM 44.8 °F 39.4 °F 38.3 °F 78% 30.11 in 10.0 mi SSE 10.4 mph 18.4 mph N/A   Clear
7:55 AM 45.5 °F 40.8 °F 38.7 °F 77% 30.11 in 10.0 mi SSE 9.2 mph - N/A   Clear
8:15 AM 46.4 °F 41.1 °F 38.8 °F 75% 30.11 in 10.0 mi SSE 11.5 mph 17.3 mph N/A   Clear
8:35 AM 47.3 °F - 39.2 °F 73% 30.11 in 10.0 mi SSE 12.7 mph 18.4 mph N/A   Clear
8:55 AM 48.7 °F - 39.4 °F 70% 30.11 in 10.0 mi SSE 15.0 mph 19.6 mph N/A   Clear
9:15 AM 50.2 °F - 39.2 °F 66% 30.11 in 10.0 mi SSE 15.0 mph 24.2 mph N/A   Clear
9:35 AM 51.8 °F - 39.9 °F 64% 30.11 in 10.0 mi SSE 17.3 mph 24.2 mph N/A   Clear
9:55 AM 52.0 °F - 40.3 °F 64% 30.12 in 10.0 mi South 15.0 mph 21.9 mph N/A   Clear
10:15 AM 52.9 °F - 40.1 °F 62% 30.11 in 10.0 mi SSE 17.3 mph 23.0 mph N/A   Clear
10:35 AM 53.1 °F - 40.1 °F 61% 30.10 in 10.0 mi South 17.3 mph 27.6 mph N/A   Scattered Clouds
10:55 AM 52.7 °F - 39.7 °F 61% 30.11 in 10.0 mi South 15.0 mph 23.0 mph N/A   Scattered Clouds
11:15 AM 54.3 °F - 40.5 °F 59% 30.09 in 10.0 mi South 16.1 mph 23.0 mph N/A   Clear
11:35 AM 55.9 °F - 41.2 °F 58% 30.09 in 10.0 mi South 16.1 mph 24.2 mph N/A   Scattered Clouds
11:55 AM 54.3 °F - 40.6 °F 60% 30.08 in 10.0 mi SSE 13.8 mph 24.2 mph N/A   Overcast
12:15 PM 55.0 °F - 41.5 °F 60% 30.09 in 10.0 mi South 16.1 mph 21.9 mph N/A   Overcast
12:35 PM 54.3 °F - 40.8 °F 60% 30.08 in 10.0 mi South 13.8 mph 20.7 mph N/A   Overcast
12:55 PM 53.6 °F - 41.2 °F 63% 30.07 in 10.0 mi SSE 20.7 mph 26.5 mph N/A   Overcast
1:15 PM 52.9 °F - 41.9 °F 66% 30.06 in 10.0 mi South 16.1 mph 23.0 mph N/A   Overcast
1:35 PM 54.5 °F - 42.1 °F 63% 30.05 in 10.0 mi SSE 16.1 mph 20.7 mph N/A   Overcast
1:55 PM 56.3 °F - 43.0 °F 61% 30.06 in 10.0 mi South 16.1 mph 24.2 mph N/A   Overcast
2:15 PM 56.3 °F - 43.3 °F 62% 30.05 in 10.0 mi South 13.8 mph 19.6 mph N/A   Mostly Cloudy
2:35 PM 55.2 °F - 43.0 °F 63% 30.06 in 10.0 mi South 11.5 mph 17.3 mph N/A   Overcast
2:55 PM 54.9 °F - 43.3 °F 65% 30.07 in 10.0 mi South 12.7 mph - N/A   Overcast
3:15 PM 54.0 °F - 43.2 °F 67% 30.08 in 10.0 mi South 13.8 mph 19.6 mph N/A   Overcast
3:35 PM 53.6 °F - 43.2 °F 68% 30.08 in 10.0 mi South 13.8 mph 18.4 mph N/A   Overcast
3:55 PM 53.2 °F - 43.2 °F 69% 30.08 in 10.0 mi South 11.5 mph - N/A   Overcast
4:15 PM 53.1 °F - 43.2 °F 69% 30.09 in 10.0 mi South 10.4 mph 16.1 mph N/A   Overcast
4:35 PM 52.9 °F - 43.5 °F 71% 30.09 in 10.0 mi South 8.1 mph - N/A   Overcast
4:55 PM 52.7 °F - 43.7 °F 71% 30.09 in 10.0 mi South 4.6 mph - N/A   Overcast
5:15 PM 52.5 °F - 43.7 °F 72% 30.10 in 10.0 mi South 5.8 mph - N/A   Overcast
5:35 PM 52.2 °F - 44.1 °F 74% 30.11 in 10.0 mi South 5.8 mph - N/A   Overcast
5:55 PM 52.2 °F - 44.2 °F 74% 30.12 in 10.0 mi SSE 5.8 mph - N/A   Overcast
6:15 PM 52.2 °F - 44.6 °F 75% 30.13 in 10.0 mi South 3.5 mph - N/A   Overcast
6:35 PM 52.2 °F - 44.6 °F 75% 30.13 in 10.0 mi SSE 4.6 mph - N/A   Overcast
6:55 PM 52.3 °F - 44.6 °F 75% 30.14 in 10.0 mi SSE 5.8 mph - N/A   Overcast
7:15 PM 52.2 °F - 44.6 °F 75% 30.14 in 10.0 mi SSE 5.8 mph - N/A   Overcast
7:35 PM 51.8 °F - 44.6 °F 76% 30.14 in 10.0 mi SSE 5.8 mph - N/A   Overcast
7:55 PM 51.8 °F - 44.6 °F 76% 30.14 in 10.0 mi SSE 5.8 mph - N/A   Overcast
8:15 PM 51.8 °F - 44.8 °F 77% 30.15 in 10.0 mi SSE 4.6 mph - N/A   Overcast
8:35 PM 51.4 °F - 45.0 °F 79% 30.15 in 10.0 mi SSE 5.8 mph - N/A   Overcast
8:55 PM 51.8 °F - 44.8 °F 77% 30.15 in 10.0 mi SSE 5.8 mph - N/A   Overcast
9:15 PM 51.4 °F - 45.0 °F 79% 30.16 in 10.0 mi SSE 5.8 mph - N/A   Overcast
9:35 PM 51.6 °F - 45.0 °F 78% 30.16 in 10.0 mi SSE 5.8 mph - N/A   Overcast
9:55 PM 51.4 °F - 45.0 °F 79% 30.16 in 10.0 mi SSE 4.6 mph - N/A   Overcast
10:15 PM 51.3 °F - 45.0 °F 79% 30.16 in 10.0 mi SSE 5.8 mph - N/A   Overcast
10:35 PM 51.3 °F - 45.0 °F 79% 30.16 in 10.0 mi SSE 4.6 mph - N/A   Overcast
10:55 PM 51.3 °F - 45.0 °F 79% 30.17 in 10.0 mi SSE 5.8 mph - N/A   Overcast
11:15 PM 51.3 °F - 45.1 °F 80% 30.17 in 10.0 mi SSE 4.6 mph - N/A   Overcast
11:35 PM 51.3 °F - 45.1 °F 80% 30.17 in 10.0 mi SSE 5.8 mph - N/A   Overcast
11:55 PM 51.4 °F - 45.3 °F 80% 30.17 in 10.0 mi SSE 6.9 mph - N/A   Overcast